HAZ3707 ZGGG-ZJQH

Flight info

Callsign HAZ3707
Flight time 1h 27m
Altitude 25600
Route VIBOS9 VIBOS R473 ZUH R200 BIGRO G221 ANPIM ANPIM9ZA
Aircraft B738/M-SDE2E3FGHIRWXY/LB1

Departure

Time 2026-05-05 12:36
Airport Guangzhou Baiyun International Airport (ZGGG)

Arrival

Time 2026-05-05 14:03
Airport Qionghai Bo'ao Airport (ZJQH)
Time Latitude Longitude Altitude Speed Heading
2026-05-05 11:54 23.39785 113.30529 57 ft 0 kts 214°
2026-05-05 12:21 23.39788 113.30531 57 ft 3 kts 214°
2026-05-05 12:21 23.39810 113.30547 54 ft 3 kts 214°
2026-05-05 12:21 23.39828 113.30560 51 ft 4 kts 214°
2026-05-05 12:22 23.39851 113.30575 51 ft 4 kts 206°
2026-05-05 12:22 23.39874 113.30583 51 ft 4 kts 165°
2026-05-05 12:22 23.39892 113.30572 49 ft 4 kts 139°
2026-05-05 12:22 23.39912 113.30554 49 ft 2 kts 147°
2026-05-05 12:23 23.39914 113.30552 53 ft 0 kts 147°
2026-05-05 12:26 23.39914 113.30553 57 ft 0 kts 147°
2026-05-05 12:26 23.39902 113.30563 57 ft 5 kts 134°
2026-05-05 12:27 23.39884 113.30611 54 ft 9 kts 106°
2026-05-05 12:27 23.39864 113.30697 56 ft 14 kts 104°
2026-05-05 12:27 23.39742 113.30788 57 ft 13 kts 105°
2026-05-05 12:28 23.39720 113.30878 57 ft 10 kts 115°
2026-05-05 12:28 23.39661 113.30897 55 ft 10 kts 192°
2026-05-05 12:28 23.39595 113.30880 52 ft 11 kts 194°
2026-05-05 12:28 23.39521 113.30860 53 ft 13 kts 194°
2026-05-05 12:29 23.39433 113.30836 53 ft 14 kts 193°
2026-05-05 12:29 23.39345 113.30812 54 ft 13 kts 194°
2026-05-05 12:29 23.39258 113.30789 52 ft 13 kts 194°
2026-05-05 12:29 23.39173 113.30766 56 ft 12 kts 194°
2026-05-05 12:30 23.39089 113.30743 56 ft 14 kts 194°
2026-05-05 12:30 23.38982 113.30714 53 ft 18 kts 193°
2026-05-05 12:30 23.38851 113.30680 53 ft 20 kts 193°
2026-05-05 12:30 23.38717 113.30643 50 ft 20 kts 196°
2026-05-05 12:31 23.38587 113.30608 55 ft 19 kts 194°
2026-05-05 12:31 23.38460 113.30573 52 ft 18 kts 194°
2026-05-05 12:31 23.38339 113.30541 56 ft 18 kts 194°
2026-05-05 12:31 23.38221 113.30509 54 ft 17 kts 194°
2026-05-05 12:32 23.38108 113.30478 51 ft 17 kts 194°
2026-05-05 12:32 23.38000 113.30449 55 ft 16 kts 194°
2026-05-05 12:32 23.37895 113.30420 51 ft 15 kts 194°
2026-05-05 12:32 23.37792 113.30393 52 ft 15 kts 194°
2026-05-05 12:33 23.37698 113.30367 50 ft 14 kts 194°
2026-05-05 12:33 23.37633 113.30365 53 ft 9 kts 148°
2026-05-05 12:33 23.37609 113.30416 55 ft 5 kts 104°
2026-05-05 12:33 23.37607 113.30422 53 ft 0 kts 104°
2026-05-05 12:34 23.37607 113.30423 53 ft 1 kts 104°
2026-05-05 12:34 23.37603 113.30444 55 ft 5 kts 104°
2026-05-05 12:34 23.37592 113.30490 54 ft 7 kts 104°
2026-05-05 12:35 23.37595 113.30537 56 ft 7 kts 40°
2026-05-05 12:35 23.37638 113.30553 53 ft 0 kts 13°
2026-05-05 12:35 23.37640 113.30553 56 ft 3 kts 13°
2026-05-05 12:35 23.37843 113.30608 52 ft 67 kts 14°
2026-05-05 12:36 23.38527 113.30793 51 ft 134 kts 14°
2026-05-05 12:36 23.39569 113.31079 231 ft 172 kts 15°
2026-05-05 12:36 23.40792 113.31424 779 ft 191 kts 15°
2026-05-05 12:36 23.42095 113.31773 1333 ft 188 kts 15°
2026-05-05 12:37 23.43379 113.32101 1800 ft 201 kts 15°
2026-05-05 12:37 23.44830 113.32477 2057 ft 227 kts 15°
2026-05-05 12:37 23.46407 113.32887 2391 ft 242 kts 14°
2026-05-05 12:37 23.48048 113.33316 2950 ft 248 kts 14°
2026-05-05 12:38 23.49736 113.33760 3640 ft 251 kts 13°
2026-05-05 12:38 23.51425 113.34207 4417 ft 254 kts 12°
2026-05-05 12:38 23.53050 113.34638 5181 ft 256 kts 12°
2026-05-05 12:38 23.54796 113.35168 5871 ft 264 kts 24°
2026-05-05 12:39 23.56189 113.36456 6545 ft 268 kts 55°
2026-05-05 12:39 23.57208 113.38138 7214 ft 272 kts 64°
2026-05-05 12:39 23.57659 113.40166 7903 ft 274 kts 87°
2026-05-05 12:39 23.57766 113.42240 8615 ft 277 kts 88°
2026-05-05 12:40 23.57867 113.44335 9273 ft 283 kts 88°
2026-05-05 12:40 23.57988 113.46494 9977 ft 287 kts 87°
2026-05-05 12:40 23.58130 113.48697 10635 ft 290 kts 86°
2026-05-05 12:40 23.58283 113.50908 11315 ft 294 kts 85°
2026-05-05 12:41 23.58440 113.53139 11981 ft 298 kts 85°
2026-05-05 12:41 23.58539 113.55342 12623 ft 303 kts 95°
2026-05-05 12:41 23.57973 113.57518 13277 ft 304 kts 120°
2026-05-05 12:41 23.56777 113.59409 13744 ft 316 kts 135°
2026-05-05 12:42 23.54918 113.60825 13918 ft 332 kts 157°
2026-05-05 12:42 23.52842 113.61856 14055 ft 352 kts 159°
2026-05-05 12:42 23.50607 113.62911 14199 ft 372 kts 159°
2026-05-05 12:42 23.49295 113.63535 14339 ft 380 kts 159°
2026-05-05 12:43 23.48587 113.63876 14459 ft 382 kts 159°
2026-05-05 12:43 23.46261 113.65020 14933 ft 388 kts 158°
2026-05-05 12:44 23.43801 113.66254 15530 ft 391 kts 158°
2026-05-05 12:44 23.41318 113.67508 16119 ft 395 kts 158°
2026-05-05 12:44 23.38819 113.68771 16667 ft 399 kts 159°
2026-05-05 12:44 23.36186 113.69669 17162 ft 396 kts 178°
2026-05-05 12:45 23.33478 113.69478 17724 ft 388 kts 199°
2026-05-05 12:45 23.31018 113.68357 18305 ft 382 kts 216°
2026-05-05 12:45 23.28967 113.66554 18770 ft 378 kts 231°
2026-05-05 12:45 23.27478 113.64233 19229 ft 376 kts 243°
2026-05-05 12:46 23.26209 113.61725 19697 ft 379 kts 244°
2026-05-05 12:46 23.24893 113.59225 20160 ft 382 kts 242°
2026-05-05 12:46 23.23535 113.56736 20636 ft 385 kts 242°
2026-05-05 12:46 23.22151 113.54237 21105 ft 388 kts 242°
2026-05-05 12:47 23.20749 113.51714 21554 ft 391 kts 242°
2026-05-05 12:47 23.19338 113.49179 22002 ft 393 kts 242°
2026-05-05 12:47 23.17924 113.46634 22509 ft 394 kts 242°
2026-05-05 12:47 23.17133 113.45212 23011 ft 388 kts 242°
2026-05-05 12:48 23.15808 113.42831 23811 ft 381 kts 242°
2026-05-05 12:48 23.14440 113.40380 24297 ft 381 kts 242°
2026-05-05 12:48 23.13033 113.37914 24699 ft 384 kts 242°
2026-05-05 12:49 23.11623 113.35463 25205 ft 383 kts 242°
2026-05-05 12:49 23.10210 113.33010 25546 ft 384 kts 242°
2026-05-05 12:49 23.08796 113.30550 25556 ft 381 kts 242°
2026-05-05 12:49 23.07396 113.28111 25565 ft 380 kts 242°
2026-05-05 12:50 23.06000 113.25678 25583 ft 381 kts 242°
2026-05-05 12:50 23.04359 113.23404 25559 ft 390 kts 226°
2026-05-05 12:50 23.02058 113.21769 25574 ft 402 kts 209°
2026-05-05 12:50 22.99371 113.20932 25590 ft 414 kts 193°
2026-05-05 12:51 22.96439 113.20960 25561 ft 427 kts 174°
2026-05-05 12:51 22.93550 113.21825 25591 ft 431 kts 167°
2026-05-05 12:51 22.90689 113.22846 25571 ft 432 kts 166°
2026-05-05 12:51 22.87846 113.23896 25575 ft 432 kts 166°
2026-05-05 12:52 22.85001 113.24937 25560 ft 431 kts 167°
2026-05-05 12:52 22.82155 113.25959 25570 ft 430 kts 167°
2026-05-05 12:52 22.79353 113.26948 25569 ft 429 kts 167°
2026-05-05 12:52 22.76511 113.27940 25571 ft 429 kts 167°
2026-05-05 12:53 22.73630 113.28939 25567 ft 428 kts 167°
2026-05-05 12:53 22.70830 113.29910 25572 ft 428 kts 167°
2026-05-05 12:53 22.68249 113.30805 25579 ft 427 kts 167°
2026-05-05 12:53 22.65462 113.31772 25573 ft 427 kts 167°
2026-05-05 12:54 22.59846 113.33717 25559 ft 427 kts 168°
2026-05-05 12:54 22.57017 113.34695 25564 ft 427 kts 168°
2026-05-05 12:54 22.54157 113.35683 25569 ft 426 kts 168°
2026-05-05 12:55 22.51363 113.36647 25575 ft 426 kts 168°
2026-05-05 12:55 22.48532 113.37625 25573 ft 426 kts 168°
2026-05-05 12:55 22.45737 113.38589 25578 ft 426 kts 168°
2026-05-05 12:55 22.42920 113.39561 25577 ft 427 kts 168°
2026-05-05 12:56 22.40086 113.40539 25579 ft 427 kts 168°
2026-05-05 12:56 22.37264 113.41512 25580 ft 427 kts 168°
2026-05-05 12:56 22.34425 113.42491 25571 ft 427 kts 168°
2026-05-05 12:56 22.31605 113.43462 25574 ft 427 kts 168°
2026-05-05 12:57 22.28852 113.44263 25568 ft 419 kts 180°
2026-05-05 12:57 22.26047 113.44144 25591 ft 402 kts 199°
2026-05-05 12:57 22.23463 113.43118 25570 ft 390 kts 215°
2026-05-05 12:57 22.21306 113.41427 25586 ft 381 kts 228°
2026-05-05 12:58 22.19580 113.39299 25567 ft 375 kts 241°
2026-05-05 12:58 22.18421 113.36860 25578 ft 370 kts 250°
2026-05-05 12:58 22.17468 113.34273 25572 ft 371 kts 252°
2026-05-05 12:58 22.16550 113.31669 25568 ft 372 kts 252°
2026-05-05 12:59 22.15610 113.29060 25569 ft 373 kts 251°
2026-05-05 12:59 22.14650 113.26465 25570 ft 374 kts 251°
2026-05-05 12:59 22.13672 113.23856 25572 ft 374 kts 250°
2026-05-05 13:00 22.11598 113.18770 25572 ft 375 kts 249°
2026-05-05 13:00 22.10888 113.17076 25563 ft 375 kts 249°
2026-05-05 13:01 22.07672 113.09360 25574 ft 374 kts 249°
2026-05-05 13:01 22.06627 113.06833 25570 ft 374 kts 249°
2026-05-05 13:01 22.05570 113.04279 25572 ft 373 kts 249°
2026-05-05 13:01 22.04511 113.01721 25555 ft 373 kts 249°
2026-05-05 13:02 22.03462 112.99174 25560 ft 373 kts 249°
2026-05-05 13:02 22.02440 112.96590 25569 ft 373 kts 250°
2026-05-05 13:02 22.01443 112.94016 25571 ft 374 kts 250°
2026-05-05 13:02 22.00444 112.91436 25578 ft 374 kts 250°
2026-05-05 13:03 21.99436 112.88842 25570 ft 375 kts 250°
2026-05-05 13:03 21.98428 112.86259 25573 ft 375 kts 250°
2026-05-05 13:03 21.97411 112.83661 25574 ft 376 kts 250°
2026-05-05 13:03 21.96392 112.81067 25574 ft 376 kts 250°
2026-05-05 13:04 21.95356 112.78473 25578 ft 376 kts 249°
2026-05-05 13:04 21.94320 112.75895 25575 ft 376 kts 249°
2026-05-05 13:04 21.93279 112.73308 25578 ft 376 kts 249°
2026-05-05 13:04 21.92241 112.70727 25568 ft 376 kts 250°
2026-05-05 13:05 21.91223 112.68193 25576 ft 374 kts 249°
2026-05-05 13:05 21.90189 112.65621 25571 ft 376 kts 249°
2026-05-05 13:05 21.89142 112.63011 25580 ft 383 kts 249°
2026-05-05 13:05 21.88072 112.60346 25578 ft 388 kts 249°
2026-05-05 13:06 21.87004 112.57692 25576 ft 386 kts 249°
2026-05-05 13:06 21.85943 112.55059 25569 ft 384 kts 249°
2026-05-05 13:06 21.84887 112.52422 25577 ft 383 kts 250°
2026-05-05 13:06 21.83838 112.49788 25569 ft 383 kts 250°
2026-05-05 13:07 21.82787 112.47140 25574 ft 382 kts 250°
2026-05-05 13:07 21.81746 112.44518 25558 ft 383 kts 250°
2026-05-05 13:07 21.80698 112.41882 25565 ft 384 kts 250°
2026-05-05 13:07 21.79657 112.39264 25568 ft 385 kts 250°
2026-05-05 13:08 21.78583 112.36568 25582 ft 387 kts 250°
2026-05-05 13:08 21.77525 112.33913 25579 ft 388 kts 250°
2026-05-05 13:08 21.76472 112.31272 25582 ft 390 kts 250°
2026-05-05 13:08 21.75400 112.28585 25578 ft 390 kts 250°
2026-05-05 13:09 21.74332 112.25910 25573 ft 391 kts 250°
2026-05-05 13:09 21.73242 112.23189 25578 ft 391 kts 250°
2026-05-05 13:09 21.72182 112.20539 25574 ft 390 kts 250°
2026-05-05 13:09 21.71092 112.17811 25577 ft 390 kts 250°
2026-05-05 13:10 21.70038 112.15176 25572 ft 390 kts 250°
2026-05-05 13:10 21.68971 112.12509 25579 ft 389 kts 250°
2026-05-05 13:10 21.67898 112.09831 25570 ft 389 kts 250°
2026-05-05 13:10 21.66836 112.07180 25571 ft 389 kts 250°
2026-05-05 13:11 21.65763 112.04503 25571 ft 389 kts 250°
2026-05-05 13:11 21.64689 112.01827 25575 ft 389 kts 250°
2026-05-05 13:11 21.63616 111.99154 25573 ft 389 kts 250°
2026-05-05 13:11 21.62546 111.96489 25570 ft 389 kts 250°
2026-05-05 13:12 21.61472 111.93816 25573 ft 389 kts 250°
2026-05-05 13:12 21.60400 111.91149 25574 ft 390 kts 250°
2026-05-05 13:12 21.59327 111.88480 25556 ft 390 kts 250°
2026-05-05 13:12 21.58246 111.85796 25552 ft 390 kts 250°
2026-05-05 13:13 21.57081 111.83177 25556 ft 393 kts 243°
2026-05-05 13:13 21.55539 111.80734 25563 ft 398 kts 234°
2026-05-05 13:13 21.53746 111.78459 25584 ft 399 kts 233°
2026-05-05 13:13 21.51929 111.76202 25563 ft 401 kts 233°
2026-05-05 13:14 21.50100 111.73936 25582 ft 401 kts 233°
2026-05-05 13:14 21.48273 111.71666 25576 ft 402 kts 233°
2026-05-05 13:14 21.46470 111.69415 25561 ft 402 kts 233°
2026-05-05 13:14 21.44631 111.67113 25578 ft 403 kts 233°
2026-05-05 13:15 21.42827 111.64848 25564 ft 403 kts 233°
2026-05-05 13:15 21.40987 111.62537 25576 ft 402 kts 233°
2026-05-05 13:15 21.39192 111.60282 25555 ft 402 kts 233°
2026-05-05 13:15 21.37400 111.58029 25572 ft 402 kts 233°
2026-05-05 13:16 21.35606 111.55776 25556 ft 401 kts 233°
2026-05-05 13:16 21.33801 111.53509 25544 ft 401 kts 233°
2026-05-05 13:16 21.31966 111.51206 25566 ft 401 kts 233°
2026-05-05 13:16 21.30175 111.48958 25568 ft 401 kts 233°
2026-05-05 13:17 21.28344 111.46662 25567 ft 401 kts 233°
2026-05-05 13:17 21.26532 111.44390 25566 ft 401 kts 233°
2026-05-05 13:17 21.24739 111.42142 25565 ft 401 kts 233°
2026-05-05 13:17 21.22924 111.39869 25562 ft 402 kts 233°
2026-05-05 13:18 21.21105 111.37591 25563 ft 402 kts 233°
2026-05-05 13:18 21.19284 111.35312 25565 ft 402 kts 233°
2026-05-05 13:18 21.17470 111.33042 25565 ft 402 kts 233°
2026-05-05 13:18 21.15649 111.30765 25565 ft 402 kts 233°
2026-05-05 13:19 21.13806 111.28461 25563 ft 403 kts 233°
2026-05-05 13:19 21.12003 111.26209 25558 ft 403 kts 233°
2026-05-05 13:19 21.10183 111.23936 25559 ft 403 kts 233°
2026-05-05 13:19 21.08366 111.21666 25559 ft 402 kts 233°
2026-05-05 13:20 21.06519 111.19361 25547 ft 402 kts 233°
2026-05-05 13:20 21.04723 111.17121 25553 ft 402 kts 233°
2026-05-05 13:20 21.02896 111.14842 25556 ft 402 kts 233°
2026-05-05 13:20 21.01071 111.12566 25559 ft 402 kts 233°
2026-05-05 13:21 20.99258 111.10306 25556 ft 402 kts 233°
2026-05-05 13:21 20.97432 111.08032 25555 ft 402 kts 233°
2026-05-05 13:21 20.95606 111.05759 25558 ft 402 kts 233°
2026-05-05 13:21 20.93801 111.03507 25555 ft 402 kts 233°
2026-05-05 13:22 20.91974 111.01221 25556 ft 402 kts 233°
2026-05-05 13:22 20.90171 110.98963 25555 ft 402 kts 233°
2026-05-05 13:22 20.88343 110.96673 25555 ft 402 kts 233°
2026-05-05 13:22 20.86524 110.94396 25556 ft 402 kts 233°
2026-05-05 13:23 20.84715 110.92133 25553 ft 402 kts 233°
2026-05-05 13:23 20.82899 110.89861 25554 ft 402 kts 233°
2026-05-05 13:23 20.81079 110.87587 25554 ft 402 kts 233°
2026-05-05 13:23 20.79257 110.85310 25549 ft 402 kts 233°
2026-05-05 13:24 20.77444 110.83046 25549 ft 402 kts 233°
2026-05-05 13:24 20.75612 110.80759 25551 ft 402 kts 233°
2026-05-05 13:24 20.73794 110.78491 25549 ft 402 kts 233°
2026-05-05 13:24 20.71977 110.76224 25551 ft 402 kts 233°
2026-05-05 13:25 20.70157 110.73955 25554 ft 402 kts 233°
2026-05-05 13:25 20.68335 110.71685 25555 ft 402 kts 233°
2026-05-05 13:25 20.66517 110.69419 25553 ft 402 kts 233°
2026-05-05 13:25 20.64703 110.67161 25551 ft 402 kts 233°
2026-05-05 13:26 20.62903 110.64920 25550 ft 402 kts 233°
2026-05-05 13:26 20.61064 110.62632 25553 ft 402 kts 233°
2026-05-05 13:26 20.59265 110.60393 25555 ft 402 kts 233°
2026-05-05 13:26 20.57447 110.58132 25552 ft 402 kts 233°
2026-05-05 13:27 20.55601 110.55838 25554 ft 402 kts 233°
2026-05-05 13:27 20.53802 110.53602 25553 ft 402 kts 232°
2026-05-05 13:27 20.51964 110.51321 25559 ft 400 kts 232°
2026-05-05 13:27 20.50024 110.49194 25549 ft 402 kts 225°
2026-05-05 13:28 20.47811 110.47418 25555 ft 403 kts 218°
2026-05-05 13:28 20.45466 110.45719 25551 ft 403 kts 218°
2026-05-05 13:28 20.43172 110.44071 25544 ft 402 kts 218°
2026-05-05 13:28 20.40871 110.42414 25552 ft 401 kts 218°
2026-05-05 13:29 20.38556 110.40739 25549 ft 401 kts 218°
2026-05-05 13:29 20.36224 110.39042 25554 ft 401 kts 218°
2026-05-05 13:29 20.33947 110.37380 25549 ft 402 kts 218°
2026-05-05 13:29 20.31698 110.35737 25554 ft 402 kts 218°
2026-05-05 13:30 20.31288 110.35438 25554 ft 402 kts 218°
2026-05-05 13:30 20.29247 110.33945 25541 ft 403 kts 218°
2026-05-05 13:30 20.26976 110.32284 25554 ft 403 kts 218°
2026-05-05 13:31 20.24957 110.30809 25549 ft 403 kts 218°
2026-05-05 13:31 20.22639 110.29115 25536 ft 405 kts 218°
2026-05-05 13:31 20.20314 110.27417 25552 ft 406 kts 218°
2026-05-05 13:31 20.17993 110.25723 25551 ft 407 kts 218°
2026-05-05 13:32 20.15660 110.24021 25550 ft 408 kts 218°
2026-05-05 13:32 20.14522 110.23190 25549 ft 408 kts 218°
2026-05-05 13:32 20.13626 110.22537 25548 ft 409 kts 218°
2026-05-05 13:32 20.11282 110.20828 25546 ft 409 kts 218°
2026-05-05 13:33 20.09000 110.19164 25545 ft 410 kts 218°
2026-05-05 13:33 20.06783 110.17548 25543 ft 410 kts 218°
2026-05-05 13:33 20.04504 110.15889 25544 ft 409 kts 218°
2026-05-05 13:33 20.03174 110.14921 25545 ft 409 kts 218°
2026-05-05 13:34 20.01160 110.13520 25537 ft 409 kts 213°
2026-05-05 13:34 19.98569 110.12145 25556 ft 411 kts 208°
2026-05-05 13:34 19.96125 110.10976 25545 ft 412 kts 207°
2026-05-05 13:35 19.93649 110.09814 25540 ft 412 kts 207°
2026-05-05 13:35 19.91024 110.08581 25550 ft 413 kts 207°
2026-05-05 13:35 19.88383 110.07328 25557 ft 414 kts 208°
2026-05-05 13:35 19.85751 110.06069 25554 ft 416 kts 208°
2026-05-05 13:36 19.83120 110.04803 25553 ft 417 kts 208°
2026-05-05 13:36 19.80482 110.03530 25552 ft 418 kts 208°
2026-05-05 13:36 19.77857 110.02261 25548 ft 419 kts 208°
2026-05-05 13:36 19.75212 110.00983 25547 ft 419 kts 208°
2026-05-05 13:37 19.72553 109.99698 25545 ft 419 kts 208°
2026-05-05 13:37 19.69908 109.98421 25549 ft 418 kts 208°
2026-05-05 13:37 19.67251 109.97138 25553 ft 418 kts 208°
2026-05-05 13:37 19.64608 109.95863 25429 ft 419 kts 208°
2026-05-05 13:38 19.61948 109.94579 25158 ft 421 kts 207°
2026-05-05 13:38 19.59309 109.93306 24622 ft 424 kts 207°
2026-05-05 13:38 19.56615 109.92007 24075 ft 423 kts 207°
2026-05-05 13:38 19.53937 109.90718 23546 ft 422 kts 207°
2026-05-05 13:39 19.51295 109.89445 22918 ft 421 kts 207°
2026-05-05 13:39 19.48619 109.88157 22277 ft 420 kts 207°
2026-05-05 13:39 19.45946 109.86925 21672 ft 420 kts 201°
2026-05-05 13:39 19.43029 109.86439 21055 ft 428 kts 180°
2026-05-05 13:40 19.40088 109.87008 20480 ft 436 kts 162°
2026-05-05 13:40 19.37419 109.88531 19905 ft 444 kts 143°
2026-05-05 13:40 19.35299 109.90865 19453 ft 445 kts 126°
2026-05-05 13:40 19.35065 109.91230 19390 ft 446 kts 123°
2026-05-05 13:41 19.34056 109.93441 19058 ft 446 kts 111°
2026-05-05 13:41 19.33164 109.96136 18685 ft 445 kts 109°
2026-05-05 13:41 19.33018 109.96584 18610 ft 445 kts 109°
2026-05-05 13:41 19.32003 109.99635 18175 ft 444 kts 110°
2026-05-05 13:42 19.30937 110.02720 17655 ft 443 kts 111°
2026-05-05 13:42 19.29860 110.05766 17161 ft 443 kts 111°
2026-05-05 13:42 19.28769 110.08828 16660 ft 443 kts 111°
2026-05-05 13:42 19.27691 110.11855 16112 ft 445 kts 111°
2026-05-05 13:43 19.26603 110.14920 15523 ft 447 kts 111°
2026-05-05 13:43 19.25445 110.17965 14924 ft 443 kts 118°
2026-05-05 13:43 19.23575 110.20531 14315 ft 434 kts 141°
2026-05-05 13:43 19.21069 110.22126 13795 ft 424 kts 160°
2026-05-05 13:44 19.18249 110.22914 13172 ft 414 kts 174°
2026-05-05 13:44 19.15407 110.22954 12542 ft 404 kts 188°
2026-05-05 13:44 19.12908 110.22332 11969 ft 391 kts 202°
2026-05-05 13:44 19.10596 110.21046 11385 ft 380 kts 217°
2026-05-05 13:45 19.08684 110.19182 10794 ft 370 kts 231°
2026-05-05 13:45 19.07310 110.16925 10222 ft 361 kts 245°
2026-05-05 13:45 19.06538 110.14462 9977 ft 345 kts 259°
2026-05-05 13:45 19.06240 110.12020 9845 ft 327 kts 268°
2026-05-05 13:46 19.06338 110.09686 9713 ft 311 kts 279°
2026-05-05 13:46 19.06890 110.07526 9554 ft 297 kts 288°
2026-05-05 13:46 19.07567 110.05510 9425 ft 285 kts 290°
2026-05-05 13:46 19.08246 110.03578 9288 ft 277 kts 290°
2026-05-05 13:47 19.08911 110.01685 9169 ft 275 kts 290°
2026-05-05 13:47 19.09565 109.99813 8995 ft 277 kts 290°
2026-05-05 13:47 19.10238 109.97873 8624 ft 283 kts 290°
2026-05-05 13:47 19.10917 109.95904 8251 ft 284 kts 289°
2026-05-05 13:48 19.11591 109.93943 7906 ft 285 kts 289°
2026-05-05 13:48 19.12260 109.91992 7554 ft 285 kts 289°
2026-05-05 13:48 19.12934 109.90028 7261 ft 283 kts 290°
2026-05-05 13:48 19.13878 109.88217 6973 ft 282 kts 309°
2026-05-05 13:49 19.14775 109.87187 6804 ft 281 kts 315°
2026-05-05 13:49 19.16217 109.85837 6590 ft 276 kts 321°
2026-05-05 13:49 19.18313 109.84342 6342 ft 271 kts 331°
2026-05-05 13:49 19.19447 109.83784 6201 ft 270 kts 338°
2026-05-05 13:50 19.20959 109.83310 6038 ft 270 kts 348°
2026-05-05 13:50 19.23301 109.83126 5800 ft 271 kts
2026-05-05 13:50 19.24548 109.83283 5701 ft 268 kts 11°
2026-05-05 13:50 19.26329 109.83822 5514 ft 262 kts 22°
2026-05-05 13:51 19.27944 109.84678 5352 ft 262 kts 32°
2026-05-05 13:51 19.29409 109.85839 5208 ft 265 kts 43°
2026-05-05 13:51 19.30670 109.87280 5159 ft 267 kts 53°
2026-05-05 13:51 19.31659 109.88931 5141 ft 267 kts 64°
2026-05-05 13:52 19.32339 109.90758 5108 ft 265 kts 75°
2026-05-05 13:52 19.32712 109.92606 5085 ft 264 kts 82°
2026-05-05 13:52 19.32896 109.94540 5054 ft 263 kts 89°
2026-05-05 13:52 19.32598 109.96422 5022 ft 261 kts 109°
2026-05-05 13:53 19.31990 109.98219 5010 ft 261 kts 111°
2026-05-05 13:53 19.31365 110.00025 4992 ft 262 kts 111°
2026-05-05 13:53 19.30748 110.01827 4961 ft 258 kts 110°
2026-05-05 13:53 19.30159 110.03570 4898 ft 240 kts 110°
2026-05-05 13:54 19.29636 110.05135 4852 ft 221 kts 110°
2026-05-05 13:54 19.29135 110.06645 4813 ft 214 kts 110°
2026-05-05 13:54 19.28642 110.08131 4803 ft 220 kts 110°
2026-05-05 13:54 19.28134 110.09669 4792 ft 224 kts 110°
2026-05-05 13:55 19.27617 110.11234 4787 ft 223 kts 110°
2026-05-05 13:55 19.27113 110.12766 4756 ft 224 kts 110°
2026-05-05 13:55 19.26592 110.14352 4738 ft 225 kts 110°
2026-05-05 13:55 19.26086 110.15891 4714 ft 225 kts 110°
2026-05-05 13:56 19.25565 110.17472 4696 ft 225 kts 110°
2026-05-05 13:56 19.25048 110.19041 4664 ft 225 kts 109°
2026-05-05 13:56 19.24538 110.20591 4637 ft 225 kts 109°
2026-05-05 13:56 19.24113 110.22198 4520 ft 228 kts 94°
2026-05-05 13:57 19.24502 110.23771 4398 ft 224 kts 62°
2026-05-05 13:57 19.25283 110.25176 4296 ft 216 kts 60°
2026-05-05 13:57 19.26041 110.26550 4172 ft 216 kts 60°
2026-05-05 13:57 19.26787 110.27909 4054 ft 217 kts 60°
2026-05-05 13:58 19.27550 110.29305 3927 ft 216 kts 61°
2026-05-05 13:58 19.28293 110.30666 3806 ft 215 kts 60°
2026-05-05 13:58 19.29040 110.32036 3686 ft 215 kts 60°
2026-05-05 13:58 19.29759 110.33370 3528 ft 214 kts 64°
2026-05-05 13:59 19.29246 110.36148 3061 ft 205 kts 144°
2026-05-05 13:59 19.28032 110.36852 2819 ft 197 kts 150°
2026-05-05 14:00 19.25745 110.38251 2346 ft 178 kts 149°
2026-05-05 14:00 19.24722 110.38872 2103 ft 163 kts 149°
2026-05-05 14:00 19.23753 110.39460 1907 ft 154 kts 148°
2026-05-05 14:00 19.22856 110.40003 1704 ft 147 kts 148°
2026-05-05 14:01 19.21961 110.40546 1521 ft 147 kts 149°
2026-05-05 14:01 19.21070 110.41086 1334 ft 150 kts 149°
2026-05-05 14:01 19.20170 110.41631 1135 ft 149 kts 149°
2026-05-05 14:01 19.19287 110.42167 965 ft 150 kts 149°
2026-05-05 14:02 19.18364 110.42726 759 ft 150 kts 150°
2026-05-05 14:02 19.17487 110.43257 571 ft 150 kts 150°
2026-05-05 14:02 19.16582 110.43806 382 ft 150 kts 150°
2026-05-05 14:02 19.15693 110.44345 180 ft 150 kts 150°
2026-05-05 14:03 19.14800 110.44889 88 ft 130 kts 151°
2026-05-05 14:03 19.14202 110.45242 88 ft 67 kts 152°
2026-05-05 14:03 19.13974 110.45372 87 ft 19 kts 151°
2026-05-05 14:03 19.13884 110.45426 88 ft 18 kts 150°
2026-05-05 14:04 19.13782 110.45488 91 ft 18 kts 151°
2026-05-05 14:04 19.13679 110.45550 91 ft 17 kts 150°
2026-05-05 14:04 19.13574 110.45612 91 ft 16 kts 151°
2026-05-05 14:04 19.13476 110.45670 90 ft 16 kts 150°
2026-05-05 14:05 19.13414 110.45740 92 ft 11 kts 101°
2026-05-05 14:05 19.13418 110.45771 94 ft 4 kts 70°
2026-05-05 14:05 19.13432 110.45802 91 ft 6 kts 63°
2026-05-05 14:05 19.13453 110.45838 91 ft 7 kts 52°
2026-05-05 14:06 19.13490 110.45858 90 ft 7 kts
2026-05-05 14:06 19.13535 110.45839 88 ft 7 kts 329°
2026-05-05 14:06 19.13575 110.45815 88 ft 7 kts 329°
2026-05-05 14:06 19.13616 110.45790 90 ft 7 kts 330°
2026-05-05 14:07 19.13655 110.45766 90 ft 7 kts 330°
2026-05-05 14:07 19.13692 110.45744 88 ft 6 kts 330°
2026-05-05 14:07 19.13731 110.45721 92 ft 6 kts 330°
2026-05-05 14:07 19.13771 110.45705 88 ft 6 kts 359°
2026-05-05 14:08 19.13805 110.45730 91 ft 6 kts 56°
2026-05-05 14:08 19.13829 110.45768 87 ft 6 kts 53°
2026-05-05 14:08 19.13864 110.45786 88 ft 6 kts
2026-05-05 14:08 19.13904 110.45773 90 ft 6 kts 332°
2026-05-05 14:09 19.13940 110.45752 88 ft 6 kts 330°
2026-05-05 14:09 19.13974 110.45734 88 ft 4 kts 345°
2026-05-05 14:09 19.13999 110.45745 90 ft 4 kts 47°
2026-05-05 14:09 19.14011 110.45763 90 ft 2 kts 56°
2026-05-05 14:10 19.14019 110.45777 88 ft 2 kts 59°
2026-05-05 14:10 19.14027 110.45791 91 ft 2 kts 59°
2026-05-05 14:10 19.14030 110.45797 91 ft 0 kts 59°